New Bern, NC

4:27 AM EDT on May 23, 2018 (GMT -0400)
Craven County Regional

Weather History for KEWN - January, 2014

Change the Weather History Date:

Tuesday, January 14, 2014

  Actual Average Record
Temperature  
Mean Temperature 53 °F 44 °F  
Max Temperature 64 °F 54 °F 79 °F (2013)
Min Temperature 41 °F 34 °F 17 °F (1954)
Degree Days  
Heating Degree Days 12 21  
Month to date heating degree days 267 294  
Since 1 July heating degree days 1120 1288  
Cooling Degree Days 0 0  
Month to date cooling degree days 1 0  
Year to date cooling degree days 1 0  
Growing Degree Days 2 (Base 50)    
Moisture  
Dew Point 55 °F    
Average Humidity 92    
Maximum Humidity 100    
Minimum Humidity 84    
Precipitation  
Precipitation 0.72 in 0.14 in 1.37 in (2005)
Month to date precipitation 3.10 1.85  
Year to date precipitation 3.10 1.85  
Snow  
Snow 0.00 in - - ()
Month to date snowfall 0.0  
Since 1 July snowfall T  
Snow Depth 0.00 in    
Sea Level Pressure  
Sea Level Pressure 29.87 in    
Wind  
Wind Speed 6 mph (SW)    
Max Wind Speed 24 mph    
Max Gust Speed 32 mph    
Visibility 6 miles    
Events Fog , Rain    
T = Trace of Precipitation, MM = Missing Value Source: NWS Daily Summary

Daily Weather History Graph

Daily Weather History Graph

Search for Another Location

Airport or City:

Astronomy

Jan. 14, 2014 Rise Set
Actual Time 7:16 AM EST 5:18 PM EST
Civil Twilight 6:48 AM EST 5:46 PM EST
Nautical Twilight 6:17 AM EST 6:17 PM EST
Astronomical Twilight 5:46 AM EST 6:47 PM EST
Moon 4:21 PM EST (1/14) 5:50 AM EST (1/14)
Length of Visible Light 10h 57m
Length of Day
10h 02m
Waxing Gibbous, 98% of the Moon is Illuminated
Jan 14
Waxing Gibbous
Jan 15
Full
Jan 24
Last Quarter
Jan 30
New
Feb 6
First Quarter

Hourly Weather History & Observations

Time (EST) Temp. Dew Point Humidity Pressure Visibility Wind Dir Wind Speed Gust Speed Precip Events Conditions
12:54 AM 54.0 °F 51.1 °F 90% 29.98 in 10.0 mi Calm Calm - 0.00 in   Clear
1:54 AM 61.0 °F 55.9 °F 83% 29.95 in 10.0 mi South 5.8 mph - N/A   Partly Cloudy
2:54 AM 61.0 °F 55.0 °F 81% 29.92 in 10.0 mi South 4.6 mph - N/A   Mostly Cloudy
3:54 AM 61.0 °F 55.0 °F 81% 29.91 in 10.0 mi South 3.5 mph - 0.00 in Rain Light Rain
4:54 AM 61.0 °F 55.0 °F 81% 29.90 in 10.0 mi SW 4.6 mph - 0.00 in Rain Light Rain
5:54 AM 59.0 °F 55.9 °F 90% 29.88 in 10.0 mi Calm Calm - 0.02 in Rain Light Rain
6:54 AM 57.9 °F 55.9 °F 93% 29.85 in 8.0 mi Calm Calm - 0.02 in Rain Light Rain
7:54 AM 57.9 °F 57.0 °F 97% 29.84 in 5.0 mi South 5.8 mph - 0.07 in Rain Rain
8:29 AM 59.0 °F 57.2 °F 94% 29.85 in 2.0 mi South 6.9 mph - 0.13 in Rain Heavy Rain
8:36 AM 59.0 °F 57.2 °F 94% 29.85 in 1.5 mi SSE 8.1 mph - 0.19 in Rain Heavy Rain
8:54 AM 59.0 °F 57.0 °F 93% 29.86 in 1.5 mi SSE 9.2 mph - 0.34 in Rain Heavy Rain
9:05 AM 59.0 °F 57.2 °F 94% 29.87 in 3.0 mi South 9.2 mph - 0.03 in Rain Rain
9:12 AM 59.0 °F 57.2 °F 94% 29.86 in 2.5 mi SSE 8.1 mph - 0.05 in Rain Rain
9:54 AM 60.1 °F 57.9 °F 93% 29.86 in 2.5 mi South 4.6 mph - 0.12 in Rain Light Rain
10:16 AM 60.8 °F 59.0 °F 94% 29.84 in 4.0 mi South 4.6 mph - 0.00 in Rain Light Rain
10:25 AM 60.8 °F 59.0 °F 94% 29.83 in 4.0 mi SSE 6.9 mph - 0.01 in Rain Light Rain
10:54 AM 62.1 °F 60.1 °F 93% 29.83 in 4.0 mi South 8.1 mph - 0.01 in Rain Light Rain
11:38 AM 62.6 °F 60.8 °F 94% 29.79 in 10.0 mi SSW 10.4 mph - 0.02 in Rain Light Rain
11:54 AM 64.0 °F 61.0 °F 90% 29.79 in 8.0 mi SW 11.5 mph - 0.02 in Rain Light Rain
12:01 PM 64.4 °F 60.8 °F 88% 29.79 in 10.0 mi SW 10.4 mph 20.7 mph 0.00 in Rain Light Rain
12:54 PM 64.0 °F 61.0 °F 90% 29.77 in 10.0 mi SW 11.5 mph - 0.03 in Rain Light Rain
1:12 PM 64.4 °F 60.8 °F 88% 29.76 in 10.0 mi SSW 9.2 mph - 0.00 in Rain Light Rain
1:54 PM 64.0 °F 60.1 °F 87% 29.75 in 10.0 mi WSW 9.2 mph - 0.00 in   Overcast
1:56 PM 64.4 °F 60.8 °F 88% 29.75 in 10.0 mi WSW 8.1 mph - N/A   Mostly Cloudy
2:03 PM 64.4 °F 60.8 °F 88% 29.76 in 10.0 mi SW 9.2 mph - N/A   Mostly Cloudy
2:37 PM 64.4 °F 60.8 °F 88% 29.76 in 10.0 mi SW 8.1 mph - N/A   Overcast
2:41 PM 62.6 °F 60.8 °F 94% 29.78 in 4.0 mi WSW 11.5 mph - 0.02 in Rain Light Rain
2:47 PM 62.6 °F 60.8 °F 94% 29.79 in 1.8 mi West 16.1 mph 24.2 mph 0.05 in Rain Rain
2:54 PM 61.0 °F 57.0 °F 87% 29.81 in 1.8 mi West 20.7 mph 32.2 mph 0.07 in Rain Light Rain
2:58 PM 60.8 °F 55.4 °F 82% 29.81 in 3.0 mi WNW 12.7 mph 32.2 mph 0.00 in Rain Light Rain
3:10 PM 59.0 °F 55.4 °F 88% 29.83 in 10.0 mi WNW 15.0 mph 24.2 mph 0.00 in   Overcast
3:54 PM 59.0 °F 55.0 °F 87% 29.83 in 10.0 mi West 6.9 mph - 0.00 in Rain Light Rain
4:33 PM 57.2 °F 55.4 °F 94% 29.85 in 10.0 mi West 6.9 mph - 0.01 in Rain Light Rain
4:54 PM 57.0 °F 54.0 °F 89% 29.88 in 10.0 mi WNW 9.2 mph - 0.01 in   Overcast
5:03 PM 55.4 °F 51.8 °F 88% 29.88 in 10.0 mi WNW 9.2 mph - N/A   Overcast
5:50 PM 53.6 °F 51.8 °F 94% 29.91 in 10.0 mi NW 6.9 mph - N/A   Scattered Clouds
5:54 PM 54.0 °F 51.1 °F 90% 29.91 in 10.0 mi NW 5.8 mph - N/A   Partly Cloudy
6:54 PM 48.9 °F 48.0 °F 97% 29.93 in 7.0 mi NW 3.5 mph - N/A   Clear
7:54 PM 50.0 °F 48.0 °F 93% 29.96 in 10.0 mi WNW 3.5 mph - N/A   Clear
8:54 PM 46.0 °F 46.0 °F 100% 29.99 in 1.5 mi Calm Calm - 0.01 in   Clear
9:04 PM 42.8 °F 42.8 °F 100% 29.99 in 4.0 mi Calm Calm - N/A   Clear
9:48 PM 44.6 °F 42.8 °F 93% 30.00 in 0.8 mi Calm Calm - N/A   Clear
9:54 PM 44.1 °F 43.0 °F 96% 30.00 in 5.0 mi Calm Calm - N/A   Partly Cloudy
10:01 PM 44.6 °F 42.8 °F 93% 30.01 in 0.5 mi Calm Calm - N/A Fog Fog
10:54 PM 41.0 °F 39.0 °F 93% 30.01 in 0.5 mi Calm Calm - N/A Fog Fog
11:54 PM 41.0 °F 41.0 °F 100% 30.01 in 0.2 mi Calm Calm - N/A Fog Fog